Location: Hope
(40.9110°N, 74.9680°W)
Time: 04:10:21
(UTC-04:00)

N. Korean satellite - Pass Details

Date: 25 January 2019
Orbit: 457 x 508 km, 97.2° (Epoch: 21 April)

Event Time Altitude Azimuth Distance (km) Brightness Sun altitude
Rises 17:51:03 0° 184° (S) 2,572 10.5 -8.4°
Reaches altitude 10° 17:53:12 10° 192° (SSW) 1,702 9.7 -8.8°
Maximum altitude 17:56:39 39° 262° (W) 769 8.3 -9.4°
Drops below altitude 10° 18:00:11 10° 333° (NNW) 1,731 9.5 -10.0°
Sets 18:02:23 0° 341° (NNW) 2,625 10.3 -10.4°
